Wind_Speed
19 19 19 18 18 18 18 17 17 16 16 16 15 15 15 16 16 17 18 18 18 18 18 18 18 18 18 19 21 23 25 28 30 32 33 34 34 35 35 35 36 37 38 39 41 42 43 44 45 46 47 48 50 51 52 53 54 55 56 56 56 56 55 54 53 51 49 47 46 44 43 43 41 39
22 22 22 21 21 21 21 20 20 19 18 18 18 18 18 18 19 19 20 20 20 20 20 21 21 22 24 26 28 29 31 33 34 35 35 36 36 36 36 37 37 38 39 40 41 42 43 44 45 46 47 48 49 50 51 52 53 54 56 56 57 58 58 58 57 56 55 53 51 50 48 47 46 45
24 24 24 24 24 23 23 23 22 22 21 20 20 20 20 21 21 22 23 23 23 24 24 25 26 28 30 32 34 35 36 37 37 37 37 36 36 36 37 37 38 38 39 40 41 42 42 43 44 45 46 46 47 48 48 49 50 51 53 54 55 56 57 58 58 58 58 57 56 55 53 52 51 50
25 26 26 26 25 25 25 24 24 24 23 23 23 23 23 24 24 25 26 26 27 28 29 30 32 33 35 37 38 39 39 38 38 38 37 37 37 37 37 38 38 39 39 40 40 40 41 41 42 42 43 44 44 45 45 46 47 48 49 50 51 52 54 55 56 57 57 58 58 57 57 55 54 54
26 26 26 26 26 26 25 25 25 25 25 25 26 26 26 27 27 28 29 29 30 32 33 34 36 37 38 39 39 39 38 38 38 37 37 37 37 37 37 38 38 37 37 37 37 38 38 39 39 39 40 40 41 41 41 42 43 44 45 46 47 48 49 51 52 53 54 55 56 56 57 57 56 56
25 25 24 25 25 25 25 25 25 26 26 27 27 27 28 28 29 30 30 31 32 33 35 36 37 38 38 39 38 38 38 37 37 36 36 36 36 36 36 35 35 34 34 34 34 34 35 36 36 36 37 37 37 37 37 38 39 40 41 42 43 44 45 46 47 48 49 51 52 53 54 54 55 55
23 23 23 23 23 23 23 24 24 25 26 26 27 28 28 28 29 30 30 31 32 32 34 35 35 36 37 36 36 36 36 36 35 35 34 34 33 33 33 32 31 31 31 31 31 31 31 31 31 32 33 34 34 34 34 34 35 35 36 37 39 40 41 42 43 44 45 46 47 48 49 50 51 51
21 21 21 21 21 21 21 22 23 24 25 26 26 27 27 27 28 29 30 30 31 31 32 33 33 33 34 33 33 33 33 33 32 31 31 30 30 29 29 28 27 27 27 27 27 27 27 27 27 28 29 30 31 32 33 33 33 33 33 33 34 35 37 38 39 39 40 41 42 44 44 45 46 47
19 19 19 19 18 18 19 19 20 21 23 24 25 26 26 26 26 27 28 28 29 30 30 30 31 31 31 31 31 30 29 29 28 27 26 26 25 25 24 24 23 23 24 24 24 24 24 24 24 25 25 27 28 29 30 30 30 30 30 30 31 32 33 34 34 35 35 36 37 39 40 40 41 42
17 17 17 17 16 16 16 17 18 19 20 21 23 24 24 24 24 24 25 25 26 27 28 28 28 28 29 29 29 28 26 25 23 23 22 21 20 19 19 19 19 19 19 20 20 20 21 21 21 21 22 23 25 26 27 27 27 27 28 28 29 30 31 31 31 31 31 32 32 33 35 35 36 37
15 15 15 14 14 13 13 13 14 16 18 19 20 22 23 23 23 22 23 23 23 24 24 24 24 25 25 25 24 24 23 21 19 19 18 17 16 15 14 14 14 14 15 15 15 16 17 18 18 19 19 21 22 24 24 24 25 25 26 26 27 28 28 29 30 30 30 30 30 30 30 31 32 32
12 12 12 12 11 10 10 10 11 12 14 16 17 19 20 21 22 21 21 21 21 21 21 20 19 19 20 19 18 17 16 15 14 13 12 12 12 11 11 11 10 9 10 10 11 11 12 13 15 16 17 19 20 22 22 23 23 23 24 24 25 25 26 26 27 28 29 29 28 28 28 29 29 29
8 8 9 8 8 7 7 6 7 8 10 12 14 16 18 19 20 20 19 19 18 18 18 16 14 13 13 13 11 10 9 8 7 7 6 8 8 8 8 8 8 7 6 7 8 9 9 10 12 14 15 16 18 20 21 22 22 22 22 23 23 23 23 23 24 25 26 27 28 27 27 27 27 27
5 5 5 5 4 4 3 3 3 4 6 8 9 12 14 15 16 17 17 16 15 14 13 11 9 8 7 6 5 5 4 4 4 4 4 6 7 6 6 7 8 8 8 8 9 9 10 10 12 13 15 16 18 19 20 21 21 21 22 22 23 23 22 22 22 22 23 24 26 26 26 26 26 26
5 3 2 1 1 0 1 1 0 1 2 4 5 7 9 11 12 13 14 14 13 12 10 8 6 4 3 2 1 0 2 3 4 4 5 6 7 7 7 8 8 9 10 10 11 11 12 12 13 14 15 17 18 19 20 20 21 21 21 22 22 23 23 23 22 22 22 23 23 24 25 25 25 25
7 5 5 4 3 3 3 3 4 4 4 4 5 6 6 8 9 10 11 12 12 11 9 8 7 5 5 4 4 4 4 5 6 6 7 8 8 9 10 10 10 10 11 11 12 13 13 14 15 16 16 18 18 19 20 20 20 20 20 20 20 21 22 22 22 22 22 22 22 23 23 23 24 24
9 8 8 8 7 7 7 7 7 7 8 8 8 9 9 9 10 10 11 11 11 11 10 10 9 9 8 8 7 7 8 8 9 9 9 10 10 11 12 12 13 13 14 15 16 16 16 16 17 17 18 19 20 20 20 20 20 19 19 18 18 18 18 19 19 20 20 20 21 21 21 22 22 22
12 11 11 11 11 11 11 11 11 11 11 12 12 12 13 13 13 13 13 13 13 13 13 12 12 12 11 11 11 11 11 11 12 12 13 14 14 14 15 16 16 17 17 18 20 21 21 21 21 21 21 22 22 22 21 21 20 19 18 17 16 15 15 15 15 16 16 17 17 18 19 19 20 20
14 14 13 12 13 14 14 14 14 15 15 15 15 15 16 16 16 16 16 16 16 16 16 15 15 15 14 14 14 14 14 14 15 16 17 18 18 18 20 21 21 22 23 22 22 23 24 25 24 25 25 25 25 24 24 23 22 20 18 16 14 13 12 12 12 12 13 14 14 15 16 17 17 18
18 16 15 14 14 15 16 16 17 19 19 19 19 18 19 19 19 19 19 20 21 21 20 19 19 19 19 19 18 18 18 18 19 19 20 22 23 22 23 25 25 26 26 25 23 23 25 26 25 25 26 26 26 26 25 23 22 21 19 16 14 13 13 13 12 12 12 12 12 13 13 14 15 15
22 21 19 18 17 16 17 18 19 21 23 23 23 22 22 22 22 21 22 24 26 25 24 23 23 23 23 23 23 23 22 23 24 24 24 26 26 26 25 26 26 25 27 28 24 20 22 24 24 23 23 24 24 25 24 21 19 18 16 15 14 14 14 15 15 15 14 13 13 12 12 12 12 12
24 24 23 22 21 19 18 19 21 23 25 26 26 25 25 24 23 22 23 27 28 27 26 27 26 26 27 27 27 27 27 27 27 28 27 28 28 27 25 25 25 25 26 29 26 19 16 18 21 21 18 17 19 21 20 17 15 13 12 12 13 14 15 16 16 15 14 13 13 11 10 8 7 7
28 27 27 27 26 24 21 20 21 22 24 26 26 26 26 25 23 22 24 27 28 28 28 28 28 28 28 28 28 28 28 27 27 28 28 27 27 27 26 25 26 26 25 27 26 20 13 12 17 20 16 12 14 18 17 15 14 12 11 11 12 12 13 14 14 13 12 11 10 8 7 5 3 3
33 33 32 30 30 30 27 25 24 23 24 26 27 26 27 26 25 23 24 26 27 28 29 30 30 30 29 28 28 28 28 27 28 28 29 28 28 27 27 27 28 27 25 24 25 23 15 12 15 19 18 13 12 15 16 15 13 11 11 11 11 10 10 9 9 9 8 8 7 6 5 4 3 2
35 36 36 33 32 32 31 30 29 28 28 29 29 29 28 28 28 27 26 26 27 28 30 31 32 33 31 30 29 29 29 28 28 30 31 31 29 28 28 28 27 27 25 23 24 24 20 15 15 18 19 16 13 14 16 15 13 12 11 11 11 9 8 8 8 8 7 7 7 6 6 6 5 5
38 37 37 36 33 32 32 32 32 31 31 32 33 33 32 32 31 30 30 29 29 30 32 33 34 34 33 33 33 32 31 30 30 31 32 32 31 29 29 28 27 27 24 22 22 24 23 20 17 18 21 20 16 15 16 17 16 15 14 13 13 12 10 10 10 10 9 9 9 9 10 10 10 10
43 41 39 37 36 35 35 34 33 33 33 33 34 35 36 36 36 35 34 33 32 33 34 35 36 35 34 34 34 34 34 33 33 32 32 32 31 29 29 29 28 28 24 21 21 24 25 23 21 20 22 22 20 19 19 19 19 18 17 16 16 16 15 14 14 13 12 11 12 12 13 14 15 15
46 45 41 39 38 39 41 42 42 41 40 39 38 38 38 38 38 38 37 37 36 36 36 37 37 38 36 35 34 34 35 36 35 34 33 32 31 30 29 28 29 30 27 22 21 23 25 25 24 23 24 24 23 22 22 22 22 21 20 19 19 19 19 18 18 17 16 15 15 15 16 16 18 19
50 49 47 45 43 45 47 49 50 49 48 46 43 43 42 41 40 39 38 38 39 40 40 39 38 39 38 37 36 35 35 36 37 37 35 33 32 31 30 29 30 31 30 27 24 24 25 26 26 26 26 27 26 25 25 24 23 22 21 22 23 22 22 21 21 21 21 19 19 20 21 22 22 22
58 58 58 57 56 55 54 53 53 52 50 46 44 43 44 45 45 43 39 38 39 41 43 42 42 42 41 39 38 37 36 36 37 37 37 37 36 35 32 32 33 32 30 29 28 27 27 28 28 28 29 29 30 29 28 27 24 21 21 23 24 24 24 23 24 24 24 25 25 25 26 26 26 26
64 64 65 66 66 65 62 61 59 57 54 50 46 45 44 44 46 45 42 41 42 43 44 45 46 46 46 44 42 40 39 38 37 36 35 37 40 40 37 35 36 35 31 30 30 29 29 29 30 30 31 32 32 32 32 31 28 24 22 24 26 26 25 25 26 27 28 29 29 28 29 29 28 26
68 67 68 69 70 70 68 67 65 64 61 57 54 52 50 48 48 47 47 47 47 48 47 47 48 48 49 49 47 45 42 41 39 37 36 36 39 41 41 40 41 39 35 33 32 32 31 31 32 32 33 34 35 34 34 35 33 29 26 26 27 28 28 27 28 30 31 32 31 31 31 31 29 27
71 71 70 70 70 71 72 71 70 69 68 66 64 63 61 58 56 55 54 55 55 54 53 51 51 50 50 50 50 50 47 45 42 41 39 38 37 39 40 42 44 44 41 38 36 35 34 34 34 35 35 36 37 37 37 37 36 34 32 30 30 31 30 29 30 31 31 32 32 32 32 31 29 28
75 74 74 73 73 73 74 74 74 73 72 71 71 70 69 67 65 63 63 63 64 62 59 56 55 54 53 53 53 52 51 50 47 45 43 41 40 39 40 41 44 46 46 44 42 39 38 37 37 38 38 39 39 39 39 39 38 36 35 35 35 34 32 31 30 31 32 31 31 32 32 31 29 29
78 78 77 77 76 76 76 77 77 77 76 75 74 73 72 71 69 68 68 68 68 66 63 61 59 58 57 56 56 56 55 54 53 51 48 46 43 42 42 42 43 45 47 47 47 45 43 42 41 40 41 41 41 41 41 41 40 39 39 40 39 36 35 33 31 32 33 32 31 33 35 35 34 34
81 81 81 80 80 80 80 80 80 80 79 78 77 76 75 74 73 72 71 70 69 68 67 65 64 62 61 60 59 60 59 58 58 56 54 52 49 46 45 45 46 46 47 48 50 49 48 47 45 43 42 43 43 44 44 44 43 43 45 45 43 40 38 35 33 33 35 35 34 36 37 38 39 39
85 84 84 84 83 84 83 83 83 83 82 82 81 79 78 77 76 75 74 73 72 71 70 69 68 67 65 64 63 63 63 62 61 60 59 58 55 52 49 49 49 49 48 49 51 51 52 52 51 48 46 45 44 46 48 47 46 46 48 49 49 46 41 38 37 37 38 38 38 38 37 40 43 44
89 88 88 88 87 87 87 87 86 86 85 85 84 83 82 80 79 78 77 76 75 75 74 73 72 71 70 68 66 65 65 65 64 63 62 61 59 57 55 54 53 52 51 51 52 52 53 54 54 53 52 50 49 50 50 50 50 50 49 51 53 51 46 44 44 44 44 43 42 42 42 44 47 48
94 93 93 92 92 91 91 91 90 89 89 88 88 87 86 84 83 82 81 80 79 78 77 77 76 75 74 72 70 69 67 67 67 67 66 64 63 62 61 59 58 57 55 54 54 54 53 54 55 56 55 54 54 54 53 53 55 55 52 52 53 52 50 50 50 50 50 49 47 46 47 49 51 51
98 98 97 96 96 95 94 94 94 93 93 92 91 91 89 88 87 86 85 84 83 81 81 80 79 78 77 76 75 73 71 70 70 70 69 69 68 67 66 65 64 63 61 59 58 58 57 56 56 56 56 56 57 57 55 56 59 60 57 54 52 51 52 53 53 53 54 54 52 52 52 52 53 53
101 101 100 99 99 98 98 97 97 97 96 95 95 94 93 92 91 90 89 88 87 85 84 83 82 82 81 80 79 77 75 74 73 73 73 72 72 71 71 70 69 68 67 64 63 63 62 59 58 57 58 58 58 57 57 58 60 62 61 58 55 54 54 54 55 55 56 56 56 56 57 56 55 56
104 103 102 102 101 101 100 100 100 99 99 98 98 97 96 95 94 93 92 91 90 89 88 87 86 85 84 83 82 81 79 78 77 76 76 75 75 75 74 74 73 72 70 69 67 67 67 65 62 61 60 59 59 59 59 60 62 63 64 63 60 58 57 57 57 57 57 58 58 58 59 58 58 59
106 105 105 104 103 103 103 102 102 101 101 100 100 99 98 97 96 96 95 94 93 92 91 90 89 88 87 87 86 85 83 82 81 80 79 79 78 78 78 78 77 76 74 72 70 70 70 68 67 66 64 62 61 60 60 61 62 64 65 66 64 62 61 61 60 59 59 60 60 60 60 60 60 62
108 107 106 106 105 105 104 104 103 103 103 102 102 102 101 100 99 99 98 97 96 95 94 93 93 92 91 90 89 88 87 86 85 84 83 82 82 81 81 81 81 80 78 76 73 72 72 70 69 68 66 65 64 63 62 62 63 65 66 68 67 66 65 64 63 62 62 63 63 62 61 61 61 62
111 110 109 108 108 107 106 105 104 104 104 103 103 103 103 103 102 101 101 100 99 98 97 96 95 95 94 93 92 92 91 90 88 87 86 85 85 85 84 84 83 83 83 81 78 76 75 73 71 70 68 67 66 65 64 64 64 65 67 69 70 70 68 66 65 65 66 67 67 66 64 63 62 62
Wind_Direction
53 53 52 51 51 51 52 51 50 48 48 47 47 46 46 44 43 44 46 49 52 55 59 62 66 69 72 76 80 84 88 91 93 94 94 93 93 92 92 92 92 90 89 88 88 86 85 83 82 81 80 79 78 77 76 75 74 73 72 71 69 68 67 66 66 65 65 66 66 66 66 66 66 67
53 52 52 52 51 51 52 53 52 52 51 50 51 52 53 54 54 55 58 61 64 67 71 75 80 83 86 89 92 94 96 98 99 99 99 98 98 97 96 96 94 93 92 91 89 88 86 85 84 83 82 80 79 78 78 77 77 76 75 74 73 72 71 70 69 68 68 67 66 66 66 65 65 65
51 50 50 50 50 50 51 52 53 54 54 54 55 57 61 63 65 68 70 73 77 81 84 87 91 93 96 98 100 102 103 104 104 104 103 102 101 100 99 97 96 94 93 91 90 89 87 86 85 83 82 81 79 78 78 77 77 76 76 75 75 74 73 73 72 71 71 70 69 69 68 67 66 66
49 49 49 49 49 50 51 52 54 56 58 59 62 64 68 71 75 78 82 85 88 91 94 96 98 100 103 105 107 108 109 109 108 106 105 104 102 101 100 98 96 93 91 90 89 88 86 85 83 82 80 79 78 77 77 76 75 75 75 75 75 74 74 73 73 72 72 72 72 72 71 70 69 69
48 49 49 49 50 52 53 54 56 58 62 64 67 71 74 78 82 86 90 92 95 98 100 102 105 107 109 110 112 112 112 111 109 108 106 105 103 102 100 97 94 91 88 87 86 84 84 82 80 79 78 76 75 74 73 73 73 73 74 74 74 74 73 73 72 72 72 72 72 72 73 72 72 72
47 49 50 51 53 55 57 59 61 63 66 69 72 74 79 84 89 92 95 97 100 102 105 107 109 111 113 114 114 114 113 111 110 108 107 105 103 101 98 95 91 89 86 84 82 81 80 80 78 75 73 72 71 70 69 69 69 70 70 71 71 72 71 71 71 71 71 72 72 72 72 72 72 72
46 47 49 52 56 59 61 63 66 69 71 74 76 79 83 88 93 97 100 101 103 105 108 110 112 113 115 115 115 115 113 112 110 108 105 104 103 100 96 92 88 86 84 80 78 78 77 75 73 70 67 66 65 65 65 66 66 67 68 68 68 69 69 69 69 69 69 70 70 70 71 71 71 70
45 46 47 50 56 61 65 68 71 74 77 80 82 85 88 93 97 101 104 106 107 109 111 113 115 116 116 116 116 114 113 111 108 105 104 103 101 99 94 88 84 81 79 76 73 72 71 68 65 63 60 57 56 56 57 58 60 64 65 66 66 67 67 68 67 67 67 68 68 68 68 69 69 69
45 46 47 48 53 59 66 70 74 78 82 86 89 92 94 98 102 105 108 110 112 113 115 116 117 118 118 117 116 113 109 106 102 98 97 97 97 96 91 85 81 77 73 70 68 65 62 60 58 56 53 49 47 47 47 49 51 54 55 56 59 61 62 64 65 66 66 66 66 66 66 66 67 67
43 44 46 47 50 55 64 71 77 82 86 90 94 97 101 104 106 109 111 113 115 117 119 119 119 120 119 118 115 111 105 100 96 91 87 84 83 84 83 80 76 72 66 63 60 56 53 51 50 48 46 42 39 38 39 40 40 41 41 42 45 48 49 52 55 58 60 61 63 63 62 63 64 65
42 41 42 44 47 51 59 69 78 86 92 96 99 102 106 110 113 114 116 117 118 120 121 120 121 122 121 120 117 114 108 100 94 92 85 76 72 73 74 71 67 65 62 56 51 48 45 42 39 37 35 32 30 29 30 31 31 31 31 32 33 34 36 38 40 44 47 51 54 55 56 57 58 58
45 43 42 42 45 49 55 67 80 92 100 104 107 110 113 117 119 121 123 124 123 123 123 121 120 121 121 119 115 113 109 100 92 90 83 72 70 72 68 59 53 56 58 51 45 42 38 33 27 24 22 20 19 18 19 19 20 20 21 22 23 25 26 28 29 30 33 36 39 42 44 46 48 49
44 45 45 43 43 47 54 67 84 98 109 115 118 120 123 125 127 128 129 130 130 130 128 124 119 120 121 117 110 103 98 87 76 71 63 53 55 59 48 33 27 30 30 26 25 22 19 15 12 9 8 7 6 6 7 7 8 9 10 12 13 15 16 18 19 20 21 23 25 27 30 33 36 39
30 35 44 48 44 42 46 60 86 107 122 129 131 134 136 137 138 139 138 138 140 140 140 136 126 122 124 117 105 92 74 54 34 23 17 14 18 21 14 4 1 0 356 351 350 351 352 353 352 351 351 352 352 354 355 356 357 359 0 2 3 4 5 7 8 9 11 12 13 15 17 20 23 26
349 345 346 12 39 7 332 313 250 192 173 166 161 158 157 156 156 157 157 155 155 156 157 159 155 148 151 151 133 14 356 348 339 337 336 335 338 342 345 344 340 339 338 334 329 326 328 332 334 334 336 337 339 342 344 346 348 350 352 353 355 355 356 357 358 359 0 2 3 5 7 9 12 14
321 310 295 279 260 248 245 246 250 247 243 231 219 208 198 190 186 183 180 178 177 179 182 186 191 196 202 220 245 268 284 296 298 301 307 310 313 314 318 321 320 319 319 319 317 314 314 317 319 321 323 325 328 331 333 335 338 340 343 346 348 349 350 350 351 352 353 354 356 357 358 0 3 5
305 298 290 281 271 261 254 250 249 247 245 244 239 233 226 221 218 214 210 207 207 208 209 209 210 213 218 227 240 254 266 276 282 286 289 294 299 301 302 303 305 306 307 309 310 310 309 309 311 312 315 317 320 322 323 324 326 328 332 335 339 342 344 345 346 348 349 350 351 353 354 355 356 358
303 294 288 283 276 268 261 257 254 252 249 246 244 243 239 235 233 232 231 229 228 226 225 225 226 228 231 236 242 249 256 264 271 278 283 287 290 293 295 295 295 295 298 300 303 305 306 306 307 308 309 311 312 313 314 314 315 317 320 323 327 331 335 339 341 343 344 346 349 351 352 353 353 354
301 296 289 283 277 273 269 265 261 257 254 251 249 248 247 245 244 244 244 243 240 239 238 240 244 245 245 247 250 253 256 260 266 272 278 284 287 289 291 293 293 293 294 294 295 297 298 300 300 301 302 305 306 305 305 305 305 306 307 310 314 318 323 329 333 336 338 341 344 347 348 349 349 350
292 292 289 284 279 274 272 271 268 263 259 255 253 253 252 252 251 252 254 253 250 249 249 252 254 257 258 258 259 260 263 265 267 270 275 280 284 285 287 290 291 292 294 295 295 291 291 291 291 291 292 295 298 298 297 296 296 296 295 296 299 304 311 317 322 325 328 333 338 341 342 342 342 344
285 285 285 282 279 275 272 269 268 267 264 260 257 256 256 255 255 257 259 259 256 255 255 257 258 260 262 263 263 264 266 268 271 273 275 279 282 284 285 287 289 292 294 298 300 296 290 289 288 284 284 285 287 288 288 288 286 283 281 284 287 293 300 306 309 311 315 321 328 331 333 335 337 338
281 282 285 283 279 275 272 268 266 267 267 265 263 262 261 260 259 260 263 263 263 261 260 260 260 261 263 265 267 267 268 270 273 275 277 279 282 283 284 285 287 290 293 297 302 304 299 293 290 287 285 284 282 281 281 280 275 269 269 275 282 288 293 295 297 298 302 307 312 312 314 318 326 335
275 278 282 284 280 275 271 269 269 271 271 271 269 267 266 265 263 262 264 266 268 268 267 265 264 263 262 264 266 269 271 272 273 275 275 277 278 280 282 283 285 287 290 293 297 302 303 294 291 291 290 287 282 281 280 277 274 275 281 285 286 287 286 286 287 289 290 291 288 285 284 289 304 342
273 274 277 280 278 274 271 269 268 271 274 275 275 273 271 270 267 263 263 266 269 271 271 270 269 267 265 264 264 266 268 270 272 273 273 273 275 277 280 281 283 285 286 287 289 293 294 286 285 288 289 287 282 281 281 279 279 283 290 291 289 285 280 278 278 277 276 274 270 265 264 270 282 309
273 271 273 276 275 272 272 271 269 268 271 274 277 278 278 277 275 271 268 267 269 270 271 271 271 271 270 268 266 264 264 267 269 271 272 274 276 277 278 279 279 280 281 280 281 285 287 282 278 280 280 279 275 273 274 276 278 280 284 284 281 278 274 272 271 271 273 278 284 284 283 283 286 291
273 269 268 270 271 270 271 273 272 271 270 272 275 277 279 280 280 279 277 275 274 275 275 273 273 273 273 272 272 270 268 267 266 268 271 274 277 278 278 278 277 275 274 272 273 277 280 278 274 273 272 271 266 262 263 267 271 274 276 276 274 270 266 265 268 271 276 282 290 299 302 302 301 300
272 270 266 264 265 267 268 270 272 272 272 272 273 275 277 277 279 279 280 281 281 281 281 279 278 277 275 274 274 274 273 271 270 269 271 274 276 277 278 279 278 275 269 263 262 268 273 273 271 269 268 266 262 258 256 257 261 266 268 269 268 267 265 265 267 270 273 279 287 296 300 301 302 302
269 270 267 264 265 267 269 270 270 271 272 272 273 274 274 275 277 278 279 280 281 282 282 282 281 280 279 278 276 274 274 274 274 273 273 274 275 277 277 276 275 274 270 262 257 260 266 269 269 268 266 264 261 258 255 254 256 259 263 264 265 266 267 267 269 271 275 282 289 294 296 297 299 298
263 265 266 266 267 270 272 272 271 271 273 273 272 272 271 270 272 275 276 278 280 281 281 280 280 280 280 280 278 276 274 273 274 276 276 275 274 275 275 273 271 271 270 267 263 260 262 265 267 267 266 264 262 259 257 256 255 256 259 261 263 265 268 269 270 270 272 277 285 294 300 303 303 302
258 260 262 264 266 268 270 270 271 272 274 274 272 271 271 270 269 269 271 275 279 280 279 279 279 278 279 279 278 277 275 273 273 274 275 275 275 274 273 272 270 269 269 269 267 265 264 265 265 265 265 264 263 261 259 258 256 254 256 258 260 263 267 270 271 270 269 271 278 287 295 299 302 303
258 258 259 262 264 266 266 267 268 269 271 271 269 270 271 271 268 265 265 271 277 278 278 278 277 277 277 278 278 277 276 275 274 273 273 273 275 277 276 273 272 271 269 269 267 264 264 264 265 265 264 263 262 262 261 260 258 255 253 255 256 260 263 265 268 269 269 272 278 283 287 291 294 294
260 259 258 259 261 263 264 265 265 266 266 266 267 267 269 270 268 265 264 269 274 276 277 276 276 276 276 277 277 276 275 274 274 274 273 271 272 275 276 275 274 274 272 270 268 265 262 262 263 264 263 262 262 261 261 261 261 259 257 254 253 256 259 260 261 264 267 271 276 280 282 284 285 284
261 260 259 259 260 261 263 264 264 264 264 264 265 265 266 267 267 266 266 269 273 275 276 275 274 274 274 274 275 275 275 274 273 272 272 271 269 270 272 273 274 276 275 273 271 268 265 263 262 262 262 262 262 262 262 262 262 262 261 258 254 254 256 258 259 261 263 266 271 275 277 278 278 277
262 261 261 260 260 260 261 262 263 264 264 265 265 265 266 266 266 265 265 267 271 273 274 273 272 272 272 272 272 273 273 274 273 271 270 270 269 268 268 269 271 274 276 275 273 271 268 266 264 263 262 262 262 262 263 263 263 262 261 260 257 255 256 258 259 261 263 264 268 272 274 273 272 271
262 262 262 262 261 261 261 262 263 263 264 264 265 265 266 266 266 266 266 266 269 271 271 271 271 271 270 270 271 271 272 273 273 272 270 269 268 267 266 267 268 271 273 274 273 272 270 268 265 264 263 262 262 263 263 263 264 264 263 261 258 256 257 260 261 262 263 264 266 269 270 269 268 268
262 262 262 262 262 262 262 263 263 263 264 264 265 265 265 265 265 266 266 266 268 269 270 270 270 270 270 269 269 269 270 271 272 273 271 269 267 265 265 266 267 267 268 269 271 272 271 269 267 266 264 263 264 264 263 262 262 264 265 265 262 259 258 260 261 261 262 263 265 266 268 269 269 269
262 262 262 262 263 263 264 264 264 264 264 265 265 265 265 265 265 265 265 266 267 268 268 269 269 270 270 269 269 269 269 269 270 271 271 270 268 266 265 265 265 266 266 266 267 268 269 270 269 269 267 266 266 266 265 263 261 260 261 263 265 264 262 262 262 260 259 261 264 265 269 274 275 272
262 262 262 263 263 264 264 264 264 264 265 265 265 265 265 265 265 265 265 265 266 267 267 268 268 269 269 269 268 268 268 268 268 269 270 270 270 268 267 266 265 265 265 265 265 265 266 267 268 269 269 269 267 267 267 266 264 261 259 260 262 264 265 266 266 264 261 260 262 266 272 277 278 277
263 263 263 263 263 263 264 264 264 264 264 264 265 265 265 264 264 264 264 264 265 265 266 266 267 267 268 268 268 268 268 268 268 267 267 268 268 269 269 268 267 266 265 265 265 265 265 265 266 266 267 268 267 267 267 267 266 264 260 259 260 263 265 266 266 266 266 264 265 268 272 276 277 277
263 263 263 263 263 263 263 263 263 263 263 264 264 264 264 264 264 264 263 263 263 264 264 265 265 266 266 267 267 267 267 267 267 267 266 266 266 267 268 269 269 268 267 266 265 265 265 265 265 265 265 265 266 267 267 267 267 266 265 262 261 261 262 263 263 264 266 267 267 269 271 273 274 276
262 262 262 263 263 262 262 263 263 263 263 263 263 263 263 263 263 264 263 263 263 263 263 263 263 264 264 265 265 266 266 266 266 266 266 266 265 266 267 268 268 269 269 268 267 266 265 264 264 264 264 264 264 265 265 265 266 267 268 267 265 263 262 262 263 264 265 266 267 269 270 272 273 275
261 261 262 262 262 262 262 262 262 263 263 263 263 263 263 263 263 263 263 263 263 263 263 263 263 263 263 264 264 264 265 265 265 265 265 265 265 265 265 266 266 267 268 268 268 268 267 265 264 263 263 264 264 263 263 263 264 266 268 268 268 267 265 264 264 264 265 266 266 267 269 271 273 274
262 262 261 261 261 261 261 261 262 262 262 262 262 262 262 262 262 262 262 263 263 263 263 263 263 263 263 263 263 263 264 264 264 265 265 265 264 264 264 264 264 265 266 266 267 268 268 267 266 264 263 262 262 262 262 262 263 265 267 268 268 268 267 267 266 266 266 267 267 267 268 270 271 273
263 262 262 262 261 261 261 261 261 261 261 261 261 262 262 262 262 262 262 262 262 262 262 263 263 263 262 262 262 262 263 263 264 264 264 264 264 264 264 263 263 263 264 264 264 265 266 266 267 266 264 263 261 261 261 262 262 263 265 266 267 267 267 267 268 268 268 268 268 269 270 271 271 272
263 263 263 263 262 262 262 261 261 260 260 260 260 261 261 261 262 262 262 261 261 262 262 262 262 262 262 262 262 262 262 262 262 262 263 263 264 264 264 263 263 263 263 262 262 262 263 264 264 265 265 264 263 261 261 261 263 264 264 265 266 267 267 267 268 268 268 269 269 269 270 271 272 273
Height
11007 11006 11005 11004 11003 11002 11002 11001 11000 10999 10998 10997 10997 10996 10995 10995 10994 10993 10992 10992 10991 10990 10989 10988 10987 10987 10986 10986 10986 10986 10986 10986 10986 10987 10987 10987 10986 10986 10986 10986 10986 10985 10985 10984 10983 10982 10981 10980 10979 10977 10976 10974 10972 10970 10968 10966 10964 10961 10959 10956 10954 10952 10949 10946 10944 10941 10939 10938 10937 10935 10935 10934 10933 10932
11009 11008 11007 11006 11005 11004 11003 11002 11001 11000 10999 10998 10998 10997 10997 10996 10995 10994 10994 10993 10992 10991 10990 10990 10989 10989 10989 10989 10989 10990 10990 10991 10991 10991 10991 10991 10990 10990 10990 10990 10990 10990 10989 10989 10988 10987 10986 10985 10984 10982 10981 10979 10977 10975 10974 10972 10970 10968 10965 10963 10961 10959 10956 10953 10951 10948 10946 10944 10942 10940 10939 10939 10938 10936
11011 11010 11009 11008 11007 11006 11005 11003 11002 11002 11001 11000 11000 10999 10998 10998 10997 10996 10995 10995 10994 10993 10993 10993 10993 10992 10993 10993 10994 10994 10995 10996 10996 10996 10995 10995 10995 10995 10995 10995 10994 10994 10994 10993 10992 10991 10990 10989 10988 10987 10985 10984 10982 10980 10979 10977 10976 10974 10972 10970 10968 10966 10963 10961 10958 10956 10953 10951 10949 10946 10944 10944 10943 10941
11014 11013 11012 11011 11009 11008 11007 11006 11005 11004 11003 11003 11002 11001 11001 11000 10999 10999 10998 10998 10997 10997 10997 10997 10997 10997 10997 10998 10998 10998 10999 11000 11000 11000 10999 10999 10999 10999 10999 10999 10999 10999 10998 10997 10996 10996 10995 10994 10992 10991 10990 10988 10987 10985 10984 10983 10981 10979 10977 10975 10973 10972 10969 10967 10965 10963 10960 10958 10956 10953 10951 10950 10949 10947
11017 11016 11014 11013 11012 11011 11010 11009 11008 11007 11006 11006 11005 11005 11004 11003 11003 11002 11001 11001 11001 11001 11001 11001 11002 11002 11002 11002 11002 11003 11003 11003 11003 11003 11003 11003 11004 11004 11004 11003 11003 11003 11002 11001 11001 11000 10999 10998 10997 10996 10994 10993 10991 10990 10989 10988 10986 10984 10982 10981 10979 10977 10975 10973 10971 10969 10967 10964 10962 10960 10958 10957 10955 10954
11020 11018 11017 11016 11015 11014 11013 11012 11012 11011 11010 11010 11009 11009 11008 11008 11007 11006 11006 11005 11005 11006 11006 11006 11006 11007 11007 11007 11007 11007 11007 11007 11007 11007 11007 11007 11008 11008 11008 11007 11007 11007 11006 11005 11004 11004 11003 11002 11001 11000 10999 10997 10996 10995 10994 10992 10990 10989 10987 10985 10984 10982 10980 10978 10976 10975 10973 10971 10969 10967 10965 10963 10962 10961
11022 11022 11021 11020 11019 11018 11017 11016 11015 11015 11014 11014 11013 11013 11013 11012 11012 11011 11011 11010 11010 11010 11011 11011 11011 11012 11012 11012 11012 11012 11011 11011 11011 11011 11011 11011 11011 11011 11011 11011 11010 11010 11009 11009 11008 11007 11006 11005 11004 11003 11002 11001 11000 10999 10998 10996 10994 10993 10991 10990 10988 10986 10984 10983 10981 10980 10978 10976 10974 10972 10971 10969 10968 10967
11025 11024 11024 11023 11022 11021 11020 11020 11019 11018 11018 11018 11017 11017 11017 11017 11017 11016 11016 11016 11016 11015 11015 11016 11016 11016 11016 11016 11016 11016 11016 11016 11015 11015 11015 11015 11015 11015 11014 11014 11014 11013 11013 11012 11011 11010 11009 11008 11007 11006 11005 11004 11003 11002 11001 10999 10998 10997 10995 10994 10992 10990 10989 10987 10986 10985 10983 10982 10980 10978 10976 10974 10973 10972
11028 11027 11026 11026 11025 11025 11024 11023 11023 11022 11022 11021 11021 11021 11021 11021 11021 11021 11021 11021 11020 11020 11020 11020 11020 11020 11020 11020 11020 11020 11020 11020 11020 11020 11019 11019 11019 11018 11018 11017 11017 11016 11016 11015 11014 11013 11012 11011 11010 11009 11008 11007 11006 11005 11003 11002 11001 11000 10998 10997 10996 10994 10992 10991 10990 10988 10987 10986 10985 10983 10981 10980 10978 10977
11030 11030 11029 11028 11028 11028 11027 11027 11026 11026 11025 11025 11025 11025 11025 11025 11025 11025 11025 11025 11025 11024 11024 11024 11024 11024 11024 11024 11024 11024 11024 11024 11023 11023 11023 11022 11022 11021 11021 11020 11019 11019 11018 11018 11017 11016 11015 11014 11013 11012 11011 11009 11008 11007 11006 11005 11003 11002 11001 11000 10999 10997 10995 10994 10993 10991 10990 10989 10988 10987 10985 10984 10983 10981
11032 11032 11031 11031 11030 11030 11030 11030 11029 11029 11029 11029 11028 11028 11028 11028 11028 11028 11028 11028 11028 11028 11028 11028 11027 11027 11027 11027 11026 11026 11026 11026 11026 11025 11025 11025 11024 11024 11023 11022 11021 11021 11020 11019 11019 11018 11017 11016 11015 11014 11013 11012 11011 11009 11008 11007 11005 11004 11003 11002 11001 10999 10998 10996 10995 10994 10993 10992 10991 10990 10988 10987 10986 10985
11033 11033 11033 11032 11032 11032 11032 11032 11032 11032 11032 11031 11031 11031 11031 11030 11030 11031 11031 11031 11031 11031 11031 11030 11030 11030 11029 11029 11029 11028 11028 11028 11027 11027 11027 11026 11026 11025 11024 11024 11023 11022 11021 11021 11020 11019 11018 11017 11017 11016 11015 11014 11012 11011 11010 11009 11007 11006 11005 11004 11002 11001 11000 10998 10997 10995 10994 10993 10992 10991 10990 10989 10989 10988
11034 11034 11034 11033 11033 11033 11033 11033 11033 11033 11033 11033 11033 11033 11033 11033 11032 11032 11032 11032 11032 11032 11032 11032 11032 11032 11031 11031 11030 11030 11030 11029 11029 11028 11028 11027 11027 11026 11025 11025 11024 11023 11022 11022 11021 11020 11019 11018 11018 11017 11016 11015 11014 11013 11011 11010 11009 11008 11007 11006 11004 11003 11001 11000 10998 10997 10996 10995 10994 10993 10992 10991 10990 10989
11034 11034 11034 11034 11034 11034 11034 11034 11034 11034 11034 11035 11035 11035 11035 11035 11034 11034 11034 11033 11033 11033 11033 11033 11033 11033 11033 11032 11032 11031 11031 11030 11030 11029 11029 11028 11028 11027 11027 11026 11025 11024 11023 11022 11021 11021 11020 11019 11018 11017 11016 11015 11014 11013 11012 11011 11010 11009 11008 11007 11006 11004 11003 11002 11000 10999 10998 10997 10996 10994 10993 10992 10992 10991
11034 11034 11034 11034 11034 11034 11034 11034 11034 11034 11035 11035 11035 11035 11035 11035 11035 11035 11035 11034 11034 11034 11034 11033 11033 11033 11033 11033 11033 11032 11032 11031 11030 11030 11029 11028 11028 11027 11027 11026 11026 11025 11024 11023 11022 11021 11020 11019 11019 11017 11016 11016 11015 11014 11013 11012 11011 11010 11009 11008 11007 11006 11004 11003 11002 11000 10999 10998 10997 10996 10995 10994 10993 10992
11033 11033 11033 11034 11034 11034 11034 11034 11034 11034 11035 11035 11035 11035 11035 11035 11035 11035 11035 11035 11035 11034 11034 11034 11033 11033 11033 11033 11032 11032 11031 11031 11030 11030 11029 11028 11028 11027 11026 11026 11025 11024 11023 11023 11022 11021 11020 11020 11019 11018 11017 11016 11015 11014 11013 11012 11011 11010 11009 11009 11007 11006 11005 11004 11003 11001 11000 10999 10998 10997 10996 10995 10994 10993
11032 11032 11033 11033 11033 11034 11034 11034 11034 11034 11034 11034 11035 11035 11035 11035 11035 11035 11035 11035 11034 11034 11033 11033 11033 11032 11032 11032 11031 11031 11031 11030 11029 11029 11028 11028 11027 11027 11026 11025 11024 11023 11022 11021 11021 11020 11020 11019 11018 11018 11017 11016 11015 11014 11012 11011 11011 11010 11009 11008 11008 11007 11006 11004 11003 11002 11001 11000 10999 10998 10997 10995 10994 10993
11031 11031 11032 11032 11032 11033 11033 11033 11033 11033 11033 11034 11034 11034 11034 11034 11034 11034 11034 11034 11034 11033 11033 11032 11032 11031 11031 11031 11030 11030 11030 11029 11029 11028 11027 11027 11027 11026 11025 11025 11024 11023 11022 11021 11020 11019 11018 11018 11017 11017 11016 11015 11014 11013 11012 11010 11010 11009 11008 11008 11007 11006 11005 11005 11003 11002 11001 11000 10999 10998 10997 10996 10995 10994
11030 11030 11030 11031 11031 11031 11031 11032 11032 11032 11032 11032 11032 11033 11033 11033 11033 11033 11033 11033 11032 11032 11032 11032 11031 11031 11030 11030 11029 11029 11028 11028 11027 11027 11026 11025 11025 11025 11024 11023 11022 11021 11021 11020 11020 11018 11017 11016 11016 11015 11014 11014 11013 11011 11010 11009 11008 11007 11006 11006 11005 11005 11005 11004 11003 11002 11001 11000 10999 10998 10997 10996 10995 10994
11029 11029 11029 11029 11029 11029 11029 11029 11029 11029 11029 11029 11030 11030 11031 11031 11032 11032 11031 11031 11030 11030 11030 11030 11030 11030 11029 11029 11028 11028 11027 11027 11026 11025 11024 11023 11023 11023 11022 11021 11020 11019 11018 11018 11018 11018 11016 11014 11014 11013 11012 11011 11010 11009 11008 11007 11006 11005 11004 11004 11003 11003 11003 11003 11002 11002 11001 11000 10999 10998 10997 10996 10995 10993
11026 11027 11027 11027 11027 11027 11027 11027 11026 11026 11026 11026 11027 11028 11028 11029 11030 11030 11029 11027 11027 11028 11028 11028 11028 11028 11027 11027 11026 11026 11026 11025 11024 11023 11022 11021 11020 11020 11020 11019 11018 11017 11016 11014 11014 11016 11015 11012 11011 11011 11011 11010 11009 11007 11006 11005 11004 11003 11002 11002 11001 11001 11001 11001 11001 11000 11000 10999 10998 10997 10996 10995 10993 10992
11023 11024 11025 11025 11025 11025 11025 11024 11024 11023 11023 11023 11024 11025 11025 11026 11027 11027 11026 11023 11023 11025 11025 11025 11025 11025 11024 11024 11023 11023 11023 11022 11021 11021 11020 11019 11018 11018 11018 11017 11016 11015 11014 11012 11010 11012 11012 11011 11009 11008 11009 11009 11007 11006 11005 11004 11003 11002 11002 11001 11001 11000 11000 10999 10998 10997 10997 10997 10996 10996 10995 10993 10992 10991
11020 11021 11022 11022 11022 11022 11022 11022 11022 11021 11021 11020 11021 11022 11022 11022 11024 11024 11022 11020 11020 11021 11021 11021 11021 11021 11021 11021 11020 11020 11020 11020 11019 11017 11017 11016 11015 11015 11015 11015 11014 11013 11013 11011 11008 11008 11009 11009 11007 11006 11007 11008 11007 11005 11004 11004 11003 11002 11002 11001 11000 10999 10999 10998 10996 10996 10995 10995 10994 10994 10993 10992 10991 10990
11016 11017 11018 11019 11019 11019 11019 11019 11019 11019 11018 11017 11017 11018 11019 11019 11020 11020 11019 11018 11018 11017 11017 11017 11016 11016 11017 11017 11017 11017 11017 11016 11016 11014 11013 11013 11012 11012 11012 11012 11011 11010 11011 11010 11007 11005 11006 11007 11006 11004 11004 11005 11005 11004 11003 11002 11002 11002 11001 11001 11000 10999 10998 10997 10996 10995 10994 10994 10993 10993 10992 10991 10991 10990
11012 11013 11014 11015 11015 11015 11015 11016 11016 11016 11015 11014 11014 11014 11015 11015 11016 11016 11016 11016 11015 11014 11013 11012 11012 11012 11013 11013 11013 11013 11013 11013 11012 11011 11009 11009 11009 11009 11008 11008 11007 11007 11007 11007 11005 11003 11004 11004 11004 11003 11002 11002 11003 11003 11002 11001 11000 11000 11000 10999 10998 10997 10997 10996 10995 10995 10994 10994 10993 10993 10992 10992 10991 10990
11007 11008 11009 11010 11011 11011 11011 11011 11012 11012 11012 11011 11010 11010 11010 11010 11011 11012 11012 11013 11012 11011 11010 11009 11008 11008 11009 11009 11009 11009 11009 11009 11009 11007 11006 11006 11006 11005 11004 11004 11003 11003 11003 11004 11003 11001 11001 11001 11001 11001 11000 11000 11000 11000 11000 10999 10998 10997 10997 10997 10996 10995 10995 10994 10993 10993 10993 10993 10993 10992 10992 10991 10991 10990
11001 11002 11004 11005 11006 11007 11007 11007 11007 11008 11008 11008 11007 11006 11005 11005 11006 11006 11007 11008 11008 11008 11007 11006 11005 11005 11005 11005 11005 11005 11005 11005 11004 11004 11004 11003 11003 11002 11001 11001 11000 10999 10999 11000 11000 10999 10998 10998 10999 10998 10997 10997 10997 10997 10997 10996 10996 10995 10995 10994 10994 10993 10992 10992 10992 10991 10991 10991 10990 10990 10990 10990 10989 10989
10995 10996 10997 10999 11000 11001 11002 11002 11002 11003 11003 11003 11003 11003 11002 11001 11000 11000 11001 11001 11002 11003 11002 11002 11001 11001 11001 11002 11001 11000 11000 10999 10999 11000 11000 11000 11000 10999 10998 10997 10996 10995 10995 10996 10997 10996 10995 10995 10995 10995 10995 10994 10994 10994 10994 10993 10993 10993 10993 10992 10991 10991 10990 10990 10990 10989 10989 10988 10987 10987 10987 10987 10986 10986
10990 10990 10991 10992 10993 10994 10995 10995 10996 10996 10997 10998 10998 10998 10998 10997 10996 10995 10995 10995 10996 10996 10996 10997 10997 10996 10996 10997 10997 10996 10996 10995 10994 10994 10995 10996 10996 10995 10995 10993 10992 10991 10991 10992 10993 10993 10992 10991 10991 10992 10991 10991 10990 10991 10990 10990 10990 10991 10990 10990 10989 10988 10988 10988 10988 10987 10986 10985 10984 10983 10983 10982 10982 10982
10984 10984 10985 10986 10987 10987 10988 10988 10988 10989 10990 10991 10992 10992 10992 10992 10992 10991 10991 10990 10990 10990 10989 10991 10991 10991 10991 10992 10992 10992 10991 10991 10990 10990 10990 10989 10989 10990 10991 10989 10987 10986 10987 10988 10989 10989 10989 10988 10988 10988 10987 10987 10986 10986 10986 10986 10987 10988 10988 10986 10985 10985 10985 10984 10984 10983 10982 10981 10981 10981 10980 10979 10978 10977
10976 10977 10978 10979 10979 10980 10980 10981 10981 10982 10983 10984 10984 10984 10985 10985 10985 10986 10986 10985 10985 10984 10984 10984 10984 10984 10985 10985 10986 10986 10986 10986 10986 10986 10986 10984 10982 10983 10985 10984 10982 10981 10983 10984 10984 10985 10985 10985 10984 10984 10983 10982 10981 10981 10982 10982 10982 10984 10984 10983 10982 10981 10981 10980 10979 10979 10978 10977 10977 10977 10976 10975 10975 10974
10967 10969 10970 10971 10971 10971 10972 10973 10974 10974 10975 10976 10976 10976 10977 10978 10979 10979 10979 10979 10979 10979 10979 10979 10978 10978 10978 10978 10979 10979 10980 10980 10981 10982 10982 10981 10979 10978 10978 10978 10977 10976 10978 10979 10980 10980 10980 10980 10980 10979 10978 10977 10976 10977 10977 10977 10977 10978 10979 10979 10978 10976 10976 10976 10975 10974 10973 10973 10972 10972 10972 10971 10971 10970
10956 10958 10960 10962 10962 10962 10963 10964 10965 10965 10966 10967 10968 10969 10970 10970 10971 10972 10972 10971 10971 10972 10972 10972 10972 10971 10972 10972 10972 10972 10973 10974 10975 10976 10976 10976 10975 10974 10973 10972 10971 10970 10972 10973 10974 10975 10975 10975 10975 10974 10973 10972 10971 10971 10971 10971 10972 10972 10973 10973 10972 10972 10971 10972 10971 10970 10969 10969 10968 10967 10967 10966 10966 10966
10946 10947 10949 10951 10952 10953 10953 10954 10955 10956 10957 10958 10959 10960 10961 10962 10963 10964 10964 10964 10964 10964 10965 10965 10965 10965 10965 10965 10965 10965 10966 10967 10968 10970 10970 10971 10971 10970 10969 10967 10965 10965 10965 10966 10967 10969 10969 10969 10969 10968 10967 10966 10966 10965 10966 10966 10966 10966 10967 10966 10966 10966 10966 10967 10967 10966 10965 10964 10963 10962 10961 10961 10961 10961
10936 10936 10937 10939 10941 10942 10943 10944 10945 10946 10947 10949 10950 10951 10951 10952 10953 10954 10955 10956 10956 10956 10957 10957 10957 10957 10957 10957 10957 10958 10958 10959 10960 10961 10963 10964 10965 10965 10964 10963 10961 10960 10960 10959 10959 10961 10963 10963 10963 10963 10962 10961 10961 10960 10960 10960 10960 10960 10960 10959 10959 10960 10961 10962 10963 10962 10960 10959 10959 10957 10955 10955 10955 10956
10925 10926 10926 10927 10929 10930 10932 10933 10934 10935 10937 10938 10939 10941 10942 10942 10944 10945 10946 10947 10947 10948 10948 10948 10948 10949 10949 10949 10949 10949 10950 10951 10952 10952 10954 10955 10957 10958 10958 10957 10956 10955 10954 10953 10952 10953 10954 10955 10956 10957 10957 10957 10956 10955 10953 10955 10956 10955 10953 10951 10951 10953 10955 10956 10958 10957 10955 10954 10953 10952 10950 10949 10948 10949
10912 10914 10915 10916 10917 10918 10920 10921 10923 10924 10926 10927 10928 10930 10931 10932 10933 10934 10936 10937 10937 10938 10938 10939 10939 10940 10940 10941 10941 10941 10942 10942 10943 10944 10944 10945 10947 10949 10950 10949 10948 10948 10948 10947 10946 10946 10947 10947 10948 10950 10951 10952 10952 10949 10947 10948 10950 10949 10948 10945 10944 10946 10948 10950 10951 10950 10949 10948 10947 10946 10946 10944 10941 10941
10899 10901 10902 10904 10905 10907 10908 10909 10911 10912 10913 10915 10916 10918 10919 10921 10922 10923 10925 10926 10927 10928 10928 10929 10930 10930 10930 10931 10932 10933 10933 10933 10934 10935 10935 10936 10937 10939 10940 10940 10940 10940 10941 10940 10939 10939 10940 10940 10941 10942 10943 10945 10945 10943 10941 10941 10941 10941 10942 10941 10938 10939 10942 10943 10943 10941 10941 10941 10941 10941 10941 10939 10935 10934
10885 10887 10889 10891 10893 10894 10895 10896 10898 10899 10900 10902 10903 10905 10907 10908 10910 10911 10913 10915 10916 10917 10918 10919 10919 10920 10921 10921 10922 10924 10925 10924 10924 10925 10926 10927 10928 10929 10929 10930 10931 10931 10932 10932 10931 10932 10933 10933 10933 10935 10936 10937 10936 10935 10936 10934 10931 10930 10934 10935 10934 10935 10936 10936 10935 10934 10932 10932 10934 10934 10934 10932 10929 10927
10871 10873 10875 10877 10878 10880 10881 10883 10884 10886 10887 10889 10890 10892 10894 10895 10897 10899 10900 10902 10904 10905 10907 10908 10908 10909 10910 10910 10911 10913 10915 10915 10914 10915 10916 10918 10919 10919 10919 10920 10920 10921 10923 10924 10923 10923 10924 10925 10926 10927 10928 10929 10928 10928 10929 10927 10921 10919 10923 10927 10930 10930 10930 10929 10928 10928 10926 10925 10926 10927 10925 10924 10922 10920
10858 10859 10861 10862 10864 10865 10867 10869 10870 10872 10873 10875 10877 10879 10881 10882 10884 10885 10887 10889 10890 10892 10894 10895 10897 10898 10898 10899 10900 10902 10904 10904 10904 10905 10906 10907 10909 10909 10909 10910 10910 10911 10912 10914 10914 10912 10913 10916 10919 10919 10920 10920 10920 10921 10921 10918 10913 10910 10912 10916 10920 10922 10922 10922 10922 10921 10919 10919 10919 10918 10916 10915 10915 10913
10843 10845 10846 10848 10849 10851 10852 10854 10856 10857 10859 10861 10863 10865 10867 10869 10870 10872 10873 10875 10877 10878 10880 10882 10883 10885 10886 10887 10888 10890 10892 10893 10893 10894 10895 10896 10898 10899 10899 10899 10900 10901 10902 10903 10903 10901 10901 10905 10909 10910 10911 10912 10912 10912 10912 10910 10906 10903 10902 10904 10908 10911 10912 10913 10914 10914 10912 10911 10911 10910 10909 10908 10908 10905
10827 10830 10831 10833 10835 10836 10838 10840 10842 10843 10845 10846 10848 10850 10853 10855 10856 10858 10859 10861 10863 10864 10866 10868 10869 10871 10873 10874 10876 10878 10879 10880 10882 10883 10884 10885 10886 10888 10889 10889 10889 10891 10892 10893 10893 10891 10890 10894 10897 10899 10902 10903 10903 10904 10904 10901 10898 10896 10893 10892 10895 10900 10901 10902 10903 10905 10904 10902 10901 10901 10901 10901 10900 10897
10810 10813 10815 10817 10819 10821 10823 10825 10827 10829 10830 10832 10833 10835 10837 10839 10841 10843 10845 10847 10849 10850 10852 10854 10856 10857 10859 10860 10862 10864 10866 10868 10869 10871 10872 10873 10873 10875 10877 10877 10878 10879 10881 10883 10883 10881 10880 10882 10885 10888 10891 10892 10893 10894 10895 10893 10890 10889 10886 10883 10884 10887 10890 10892 10893 10894 10894 10892 10891 10892 10892 10893 10892 10889
10792 10795 10797 10799 10801 10803 10806 10808 10811 10813 10815 10816 10818 10820 10821 10823 10825 10827 10829 10831 10834 10836 10838 10840 10841 10843 10844 10846 10848 10850 10852 10854 10856 10858 10860 10861 10861 10862 10863 10865 10866 10867 10868 10869 10872 10872 10871 10872 10874 10876 10878 10880 10881 10883 10884 10884 10883 10881 10878 10876 10874 10874 10877 10881 10884 10884 10883 10882 10880 10882 10883 10883 10882 10881